| time (UTC) | temp C | wind direction | speed KPH | gust KPH | rain 1hr cm | rain 24hr cm | rain mn cm | humidity % | barometer mb |
| 20260505214538 | 27 | 181 | 11.3 | 20.9 | 0.00 | 0.00 | 0.00 | 80 | 1006.6 |
| 20260505213011 | 27 | 119 | 14.5 | 24.1 | 0.00 | 0.00 | 0.00 | 79 | 1006.7 |
| 20260505211554 | 27 | 200 | 12.9 | 24.1 | 0.00 | 0.00 | 0.00 | 80 | 1006.7 |
| 20260505210021 | 27 | 126 | 14.5 | 24.1 | 0.00 | 0.00 | 0.00 | 79 | 1006.9 |
| 20260505204602 | 27 | 182 | 16.1 | 27.4 | 0.00 | 0.00 | 0.00 | 79 | 1007.0 |
| 20260505203034 | 27 | 222 | 9.7 | 17.7 | 0.00 | 0.00 | 0.00 | 80 | 1007.2 |
| 20260505201511 | 27 | 212 | 9.7 | 20.9 | 0.00 | 0.00 | 0.00 | 81 | 1007.6 |
| 20260505200049 | 27 | 198 | 12.9 | 22.5 | 0.00 | 0.00 | 0.00 | 80 | 1007.6 |
| 20260505194517 | 27 | 180 | 12.9 | 22.5 | 0.00 | 0.00 | 0.00 | 79 | 1007.8 |
| 20260505193057 | 27 | 215 | 11.3 | 27.4 | 0.00 | 0.00 | 0.00 | 80 | 1007.9 |
| 20260505191533 | 27 | 189 | 8.0 | 19.3 | 0.00 | 0.00 | 0.00 | 81 | 1008.1 |
| 20260505190112 | 27 | 139 | 9.7 | 22.5 | 0.00 | 0.00 | 0.00 | 82 | 1008.2 |
| 20260505184538 | 26 | 196 | 9.7 | 24.1 | 0.00 | 0.00 | 0.00 | 82 | 1008.3 |
| 20260505183005 | 26 | 153 | 8.0 | 14.5 | 0.00 | 0.00 | 0.00 | 82 | 1008.3 |
| 20260505181539 | 26 | 215 | 6.4 | 20.9 | 0.00 | 0.00 | 0.00 | 83 | 1008.5 |
| 20260505180013 | 26 | 216 | 11.3 | 22.5 | 0.00 | 0.00 | 0.00 | 83 | 1008.7 |
| 20260505174551 | 26 | 177 | 9.7 | 19.3 | 0.00 | 0.00 | 0.00 | 84 | 1008.7 |
| 20260505173006 | 26 | 192 | 6.4 | 17.7 | 0.00 | 0.00 | 0.00 | 84 | 1008.9 |
| 20260505171551 | 26 | 142 | 8.0 | 20.9 | 0.00 | 0.00 | 0.00 | 84 | 1008.9 |
| 20260505170024 | 26 | 181 | 9.7 | 20.9 | 0.00 | 0.00 | 0.00 | 84 | 1009.0 |
| 20260505164558 | 26 | 215 | 9.7 | 25.7 | 0.00 | 0.00 | 0.00 | 84 | 1009.0 |
| 20260505163032 | 25 | 234 | 8.0 | 20.9 | 0.00 | 0.00 | 0.00 | 85 | 1009.0 |
| 20260505161505 | 25 | 174 | 9.7 | 22.5 | 0.00 | 0.00 | 0.00 | 85 | 1008.9 |
| 20260505153105 | 25 | 165 | 9.7 | 24.1 | 0.00 | 0.00 | 0.00 | 85 | 1008.7 |
| 20260505151536 | 25 | 124 | 4.8 | 19.3 | 0.00 | 0.00 | 0.00 | 86 | 1008.6 |
| 20260505124528 | 23 | 169 | 6.4 | 16.1 | 0.00 | 0.00 | 0.00 | 90 | 1008.3 |
| 20260505123109 | 22 | 217 | 4.8 | 14.5 | 0.00 | 0.00 | 0.00 | 90 | 1008.3 |
| 20260505121540 | 22 | 150 | 8.0 | 19.3 | 0.00 | 0.00 | 0.00 | 90 | 1007.9 |
| 20260505120015 | 22 | 126 | 9.7 | 19.3 | 0.00 | 0.00 | 0.00 | 90 | 1007.8 |
| 20260505114545 | 22 | 181 | 4.8 | 14.5 | 0.00 | 0.00 | 0.00 | 90 | 1008.3 |
| 20260505113015 | 22 | 196 | 6.4 | 16.1 | 0.00 | 0.00 | 0.00 | 90 | 1007.9 |
| 20260505111552 | 22 | 181 | 6.4 | 16.1 | 0.00 | 0.00 | 0.00 | 89 | 1007.9 |
| 20260505101611 | 22 | 158 | 8.0 | 16.1 | 0.00 | 0.00 | 0.00 | 89 | 1008.0 |
| 20260505100056 | 22 | 182 | 6.4 | 17.7 | 0.00 | 0.00 | 0.00 | 89 | 1008.1 |
| 20260505094508 | 22 | 155 | 6.4 | 17.7 | 0.00 | 0.00 | 0.00 | 89 | 1007.9 |
| 20260505093101 | 22 | 171 | 6.4 | 19.3 | 0.00 | 0.00 | 0.00 | 89 | 1008.1 |
| 20260505091520 | 22 | 189 | 4.8 | 17.7 | 0.00 | 0.00 | 0.00 | 89 | 1008.2 |
| 20260505090108 | 22 | 186 | 4.8 | 14.5 | 0.00 | 0.00 | 0.00 | 89 | 1008.3 |
| 20260505084530 | 22 | 193 | 4.8 | 11.3 | 0.00 | 0.00 | 0.00 | 89 | 1008.3 |
| 20260505083112 | 22 | 195 | 8.0 | 17.7 | 0.00 | 0.00 | 0.00 | 89 | 1008.3 |
| 20260505081538 | 22 | 157 | 6.4 | 20.9 | 0.00 | 0.00 | 0.00 | 88 | 1008.6 |
| 20260505080008 | 22 | 219 | 8.0 | 22.5 | 0.00 | 0.00 | 0.00 | 88 | 1008.6 |
| 20260505074553 | 21 | 153 | 9.7 | 19.3 | 0.00 | 0.00 | 0.00 | 88 | 1008.7 |
| 20260505073033 | 21 | 209 | 6.4 | 17.7 | 0.00 | 0.00 | 0.00 | 88 | 1008.8 |
| 20260505071603 | 21 | 129 | 6.4 | 17.7 | 0.00 | 0.00 | 0.00 | 87 | 1008.9 |
| 20260505070041 | 22 | 169 | 3.2 | 14.5 | 0.00 | 0.00 | 0.00 | 87 | 1008.9 |
| 20260505064511 | 21 | 180 | 9.7 | 22.5 | 0.00 | 0.00 | 0.00 | 87 | 1009.2 |
| 20260505063050 | 21 | 207 | 9.7 | 19.3 | 0.00 | 0.00 | 0.00 | 86 | 1009.6 |
| 20260505061522 | 21 | 195 | 8.0 | 19.3 | 0.00 | 0.00 | 0.00 | 86 | 1009.9 |
| 20260505060056 | 22 | 168 | 4.8 | 14.5 | 0.00 | 0.00 | 0.00 | 85 | 1009.8 |
| 20260505054522 | 22 | 201 | 4.8 | 22.5 | 0.00 | 0.00 | 0.00 | 85 | 1009.9 |
| 20260505053109 | 21 | 186 | 6.4 | 14.5 | 0.00 | 0.00 | 0.00 | 85 | 1010.1 |
| 20260505051541 | 22 | 165 | 8.0 | 20.9 | 0.00 | 0.00 | 0.00 | 84 | 1010.0 |
| 20260505041607 | 22 | 187 | 6.4 | 16.1 | 0.00 | 0.00 | 0.00 | 82 | 1010.1 |
| 20260505040040 | 22 | 141 | 11.3 | 22.5 | 0.00 | 0.00 | 0.00 | 82 | 1010.5 |
| 20260505034513 | 22 | 170 | 8.0 | 24.1 | 0.00 | 0.00 | 0.00 | 81 | 1010.6 |
| 20260505033104 | 22 | 196 | 12.9 | 33.8 | 0.00 | 0.00 | 0.00 | 80 | 1010.6 |
| 20260505031538 | 22 | 271 | 9.7 | 27.4 | 0.00 | 0.00 | 0.00 | 80 | 1010.5 |
| 20260505030004 | 23 | 136 | 8.0 | 32.2 | 0.00 | 0.00 | 0.00 | 79 | 1010.5 |
| 20260505024544 | 22 | 162 | 8.0 | 17.7 | 0.00 | 0.00 | 0.00 | 79 | 1010.4 |
| 20260505023018 | 22 | 150 | 11.3 | 24.1 | 0.00 | 0.00 | 0.00 | 79 | 1010.4 |
| 20260505021556 | 22 | 165 | 9.7 | 20.9 | 0.00 | 0.00 | 0.00 | 79 | 1010.4 |
| 20260505020029 | 23 | 165 | 9.7 | 19.3 | 0.00 | 0.00 | 0.00 | 78 | 1010.3 |
| 20260505014609 | 23 | 123 | 12.9 | 30.6 | 0.00 | 0.00 | 0.00 | 78 | 1010.2 |
| 20260505013033 | 23 | 176 | 8.0 | 20.9 | 0.00 | 0.00 | 0.00 | 77 | 1010.0 |
| 20260505011515 | 23 | 122 | 14.5 | 25.7 | 0.00 | 0.00 | 0.00 | 76 | 1010.1 |
| 20260505010110 | 23 | 148 | 9.7 | 22.5 | 0.00 | 0.00 | 0.00 | 76 | 1009.9 |
| 20260505004523 | 23 | 188 | 6.4 | 16.1 | 0.00 | 0.00 | 0.00 | 75 | 1009.7 |
| 20260505003107 | 24 | 210 | 12.9 | 24.1 | 0.00 | 0.00 | 0.00 | 75 | 1009.7 |
| 20260505001536 | 24 | 189 | 8.0 | 24.1 | 0.00 | 0.00 | 0.00 | 74 | 1009.9 |
| 20260505000012 | 25 | 147 | 6.4 | 22.5 | 0.00 | 0.00 | 0.00 | 73 | 1009.7 |
| 20260504234551 | 25 | 190 | 8.0 | 17.7 | 0.00 | 0.00 | 0.00 | 73 | 1010.0 |
| 20260504233025 | 25 | 171 | 6.4 | 17.7 | 0.00 | 0.00 | 0.00 | 72 | 1010.1 |
| 20260504231603 | 25 | 194 | 11.3 | 22.5 | 0.00 | 0.00 | 0.00 | 72 | 1010.2 |
| 20260504230041 | 25 | 139 | 11.3 | 33.8 | 0.00 | 0.00 | 0.00 | 72 | 1010.3 |
| 20260504224506 | 25 | 169 | 12.9 | 27.4 | 0.00 | 0.00 | 0.00 | 71 | 1010.5 |
| 20260504223100 | 25 | 153 | 11.3 | 37.0 | 0.00 | 0.00 | 0.00 | 71 | 1010.5 |
| 20260504221538 | 25 | 110 | 8.0 | 20.9 | 0.00 | 0.00 | 0.00 | 69 | 1010.7 |
| 20260504220106 | 25 | 197 | 12.9 | 25.7 | 0.00 | 0.00 | 0.00 | 68 | 1010.8 |